This is the latest recevied weather packets stored in our database for station/object EA7JCM-13. If no packets are shown the sender has not sent any weather packets the latest 10 day(s).
| Time | Temp. | Humidity | Pressure | Rain* | Wind** | Luminosity | Snow |
|---|---|---|---|---|---|---|---|
| 1777470904 | 20° C | 75% | 1007 hPa | 0 mm | - | - | - |
| 1777470604 | 20.56° C | 72% | 1006.9 hPa | 0 mm | - | - | - |
| 1777470303 | 20° C | 74% | 1006.9 hPa | 0 mm | - | - | - |
| 1777470004 | 19.44° C | 73% | 1006.9 hPa | 0 mm | - | - | - |
| 1777469702 | 20° C | 73% | 1007.1 hPa | 0 mm | - | - | - |
| 1777469402 | 19.44° C | 76% | 1007 hPa | 0 mm | - | - | - |
| 1777469101 | 19.44° C | 76% | 1007 hPa | 0 mm | - | - | - |
| 1777468802 | 19.44° C | 75% | 1006.9 hPa | 0 mm | - | - | - |
| 1777468501 | 19.44° C | 77% | 1007.1 hPa | 0 mm | - | - | - |
| 1777468202 | 18.89° C | 77% | 1007.2 hPa | 0 mm | - | - | - |
| 1777467902 | 18.89° C | 77% | 1007.1 hPa | 0 mm | - | - | - |
| 1777467602 | 19.44° C | 78% | 1007.2 hPa | 0 mm | - | - | - |
| 1777467301 | 18.89° C | 77% | 1007.3 hPa | 0 mm | - | - | - |
| 1777467002 | 19.44° C | 76% | 1007.2 hPa | 0 mm | - | - | - |
| 1777466701 | 18.89° C | 78% | 1007.1 hPa | 0 mm | - | - | - |
| 1777466402 | 18.89° C | 78% | 1007.2 hPa | 0 mm | - | - | - |
| 1777466102 | 19.44° C | 77% | 1007.4 hPa | 0 mm | - | - | - |
| 1777465802 | 19.44° C | 78% | 1007.1 hPa | 0 mm | - | - | - |
| 1777465502 | 19.44° C | 81% | 1007.4 hPa | 0 mm | - | - | - |
| 1777465202 | 19.44° C | 79% | 1007.5 hPa | 0 mm | - | - | - |
| 1777464902 | 18.33° C | 80% | 1007.4 hPa | 0 mm | - | - | - |
| 1777464602 | 18.33° C | 81% | 1007.2 hPa | 0 mm | - | - | - |
| 1777464302 | 18.33° C | 82% | 1007.5 hPa | 0 mm | - | - | - |
| 1777464002 | 18.33° C | 80% | 1007.4 hPa | 0 mm | - | - | - |
| 1777463702 | 18.33° C | 80% | 1007.4 hPa | 0 mm | - | - | - |
* Rain latest hour (hover to see other rain measurements)
** Current wind speed in m/s (hover to see current wind gust speed)